Location: Austin
(30.3000°N, 97.7500°W)
Time: 10:18:29
(UTC-05:00)

ACS3 Solar Sail - Visible Passes

Search period start: 11 April 2026 00:00
Search period end: 21 April 2026 00:00
Orbit: 871 x 977 km, 97.2° (Epoch: 11 April)

Date Brightness Start Highest point End Pass type
(mag) Time Alt. Az. Time Alt. Az. Time Alt. Az.
11 Apr 4.2 03:07:31 10° N 03:08:21 14° N 03:08:21 14° N visible
12 Apr 4.1 03:17:18 10° N 03:18:13 15° N 03:18:13 15° N visible
13 Apr 4.1 03:27:04 10° N 03:28:00 15° NNW 03:28:00 15° NNW visible
14 Apr 4.1 03:36:47 10° NNW 03:37:42 14° NNW 03:37:42 14° NNW visible
15 Apr 4.5 02:03:27 10° NNE 02:03:45 11° NNE 02:03:45 11° NNE visible
15 Apr 4.1 03:46:30 10° NNW 03:47:17 13° NNW 03:47:17 13° NNW visible
16 Apr 4.4 02:12:34 10° NNE 02:13:16 13° NNE 02:13:16 13° NNE visible
16 Apr 4.1 03:56:13 10° NNW 03:56:47 12° NNW 03:56:47 12° NNW visible
17 Apr 4.2 02:21:40 10° NNE 02:22:41 15° NNE 02:22:41 15° NNE visible
17 Apr 4.1 04:06:02 10° NNW 04:06:12 10° NW 04:06:12 10° NW visible
18 Apr 4.1 02:30:43 10° NNE 02:32:00 17° NNE 02:32:00 17° NNE visible
19 Apr 4.0 02:39:43 10° N 02:41:14 19° N 02:41:14 19° N visible
20 Apr 3.9 02:48:41 10° N 02:50:22 20° N 02:50:22 20° N visible
